#timestamp,LO_Frequency,Hit,StdDev 
1525881615.6,286046998.4,N
1525881635.5,286046998.6,N
1525881655.3,286046998.2,N
1525881675.2,286047000.8,N
1525881695.9,286047000.4,N
1525881715.7,286047000.1,N
1525881735.6,286047000.4,N
1525881755.4,286047000.6,N
1525881775.2,286047001.1,N
1525881795.1,286047000.4,N
1525881796.0,286047000.4,N
1525881815.8,286047000.3,N
1525881835.7,286046999.8,N
1525881855.5,286047002.8,N
1525881875.3,286047001.1,N
1525881895.2,286047000.1,N
1525881915.0,286046998.5,N
1525881915.9,286046998.5,N
1525881935.8,286047000.7,N
1525881955.6,286046998.9,N
1525881975.4,286046997.8,N
1525881995.3,286046999.6,N
1525882015.1,286046997.4,N
1525882035.8,286046996.6,N
1525882055.7,286046996.5,N
1525882075.5,286046999.4,N
1525882095.4,286046999.2,N
1525882115.2,286047000.4,N
1525882135.0,286046999.9,N
1525882135.9,286046999.9,N
1525882155.8,286047001.0,N
1525882175.6,286047001.0,N
1525882195.5,286046998.9,N
1525882215.3,286046998.5,N
1525882235.1,286046998.4,N
1525882255.9,286046998.3,N
1525882275.7,286046998.1,N
1525882295.5,286047001.1,N
1525882315.4,286046999.7,N
1525882335.2,286047000.1,N
1525882355.1,286047000.1,N
1525882356.0,286047000.1,N
1525882375.8,286047001.2,N
1525882395.6,286047001.1,N
1525882415.5,286047001.1,N
1525882435.3,286047000.3,N
1525882455.1,286047000.6,N
1525882475.9,286047000.8,N
1525882495.7,286046998.8,N
1525882515.6,286046998.6,N
1525882535.4,286046996.6,N
1525882555.2,286046996.8,N
1525882575.1,286046997.1,N
1525882576.0,286046997.1,N
1525882595.8,286046997.2,N
1525882615.7,286046997.4,N
1525882635.5,286046996.6,N
1525882655.3,286046996.7,N
1525882675.2,286046997.7,N
1525882695.9,286046997.5,N
1525882715.7,286046997.6,N
1525882735.6,286046997.6,N
1525882755.4,286046995.2,Y
1525882805.3,286046996.8,E
1525882815.2,286046999.4,N
1525882835.0,286047000.4,P
1525882835.9,286047000.4,N
1525882855.8,286047002.1,Y
1525882875.6,286047001.7,P
1525882895.5,286047004.4,P
1525882915.3,286047004.2,N
1525882935.1,286047003.7,N
1525882955.9,286047003.1,N
1525882975.7,286047003.2,N
1525882995.6,286047003.7,N
1525883015.4,286047003.4,N
1525883035.2,286047003.7,N
1525883055.1,286047001.4,N
1525883056.0,286047001.4,N
1525883075.8,286047001.9,N
1525883095.6,286047001.9,N
1525883115.5,286047002.1,N
1525883135.3,286047002.3,N
1525883155.2,286047002.7,N
1525883175.9,286047001.8,N
1525883195.7,286047001.8,N
1525883215.6,286047001.4,N
1525883235.4,286047003.7,Y
1525883255.2,286047000.9,P
1525883275.1,286046998.1,N
1525883276.0,286046998.1,N
1525883295.8,286046999.4,N
1525883315.7,286046999.3,N
1525883335.5,286046998.5,N
1525883355.3,286046999.3,N
1525883375.2,286046998.4,N
1525883395.0,286046999.2,N
1525883395.9,286046999.2,N
1525883415.7,286046999.1,N
1525883435.6,286046999.4,N
1525883455.4,286046999.4,N
1525883475.3,286046999.2,N
1525883495.1,286046999.0,N
1525883496.0,286046999.0,N
1525883515.8,286046998.9,N
1525883535.7,286046999.6,N
1525883555.5,286046999.0,N
1525883575.4,286046998.8,N
1525883595.2,286046999.4,N
1525883615.0,286046999.2,N
1525883615.9,286046999.2,N
1525883635.8,286046999.3,N
1525883655.6,286046999.6,N
1525883675.4,286046999.4,N
1525883695.3,286046998.4,N
1525883715.1,286047000.3,N
1525883735.9,286047000.6,N
1525883755.7,286046999.8,N
1525883775.5,286047002.8,Y
1525883795.4,286047002.4,P
1525883815.2,286047000.4,N
1525883835.1,286047000.4,N
1525883836.0,286047000.4,N
1525883855.8,286046999.8,N
1525883875.6,286047002.6,N
1525883895.5,286047002.2,N
1525883915.3,286047001.5,N
1525883935.1,286047004.4,Y
1525883955.9,286047000.2,P
1525883975.7,286047000.6,N
1525883995.6,286047001.1,P
1525884015.4,286046998.3,Y
1525884035.2,286046999.1,P
1525884055.1,286046998.7,N
1525884056.0,286046998.7,N
1525884075.8,286047000.9,N
1525884095.7,286047011.9,Y
1525884115.5,286047002.2,P
1525884135.3,286047002.0,N
1525884155.2,286047001.9,N
1525884175.0,286047002.4,N
1525884175.9,286047002.4,N
1525884195.8,286047000.4,N
1525884215.6,286047000.4,N
1525884235.4,286047000.0,N
1525884255.3,286047000.5,N
1525884275.1,286047002.5,N
1525884295.9,286047002.8,N
1525884315.7,286047002.3,N
1525884335.5,286047000.1,N
1525884355.4,286047001.2,N
1525884375.2,286047000.9,N
1525884395.0,286047000.9,N
1525884395.9,286047000.9,N
1525884415.8,286047000.9,N
1525884435.6,286047000.2,N
1525884455.5,286047000.1,N
1525884475.3,286047000.2,N
1525884495.1,286047002.0,N
1525884515.9,286047001.8,N
1525884535.7,286047002.2,N
1525884555.5,286047002.1,N
1525884575.4,286047002.5,N
1525884595.2,286047002.6,N
1525884615.1,286047002.4,N
1525884616.0,286047002.4,N
1525884635.8,286047002.2,N
1525884655.6,286047001.9,N
1525884675.5,286047002.1,N
1525884695.3,286047001.9,N
1525884715.2,286047002.6,N
1525884735.9,286047002.2,N
1525884755.7,286046999.9,N
1525884775.6,286046999.7,N
1525884795.4,286047000.9,N
1525884815.2,286046998.1,N
1525884835.1,286047000.8,N
1525884836.0,286047000.8,N
1525884855.8,286047002.4,N
1525884875.7,286047000.5,N
1525884895.5,286047000.2,N
1525884915.3,286047002.4,N
1525884935.2,286047002.7,N
1525884955.0,286047002.2,N
1525884955.9,286047002.2,N
1525884975.7,286047001.6,N
1525884995.6,286047001.6,N
1525885015.4,286047001.3,N
1525885035.3,286047002.5,N
1525885055.1,286047002.5,N
1525885056.0,286047002.5,N
1525885075.8,286047002.0,N
1525885095.7,286047000.3,N
1525885115.5,286047001.0,N
1525885135.4,286047001.0,N
1525885155.2,286047000.4,N
1525885175.0,286047000.5,N
1525885175.9,286047000.5,N
1525885195.8,286047001.2,N
